Year,Month,Day,Hour,Minute,Value (Times are PST for temperature in C)
2016,08,23,00,00,14.10
2016,08,23,00,01,14.00
2016,08,23,00,02,14.00
2016,08,23,00,03,14.00
2016,08,23,00,04,13.90
2016,08,23,00,05,13.90
2016,08,23,00,06,13.90
2016,08,23,00,07,13.90
2016,08,23,00,08,13.90
2016,08,23,00,09,13.90
2016,08,23,00,10,13.80
2016,08,23,00,11,13.80
2016,08,23,00,12,13.80
2016,08,23,00,13,13.80
2016,08,23,00,14,13.80
2016,08,23,00,15,13.80
2016,08,23,00,16,13.80
2016,08,23,00,17,13.80
2016,08,23,00,18,13.80
2016,08,23,00,19,13.80
2016,08,23,00,20,13.80
2016,08,23,00,21,13.80
2016,08,23,00,22,13.80
2016,08,23,00,23,13.80
2016,08,23,00,24,13.80
2016,08,23,00,25,13.80
2016,08,23,00,26,13.80
2016,08,23,00,27,13.80
2016,08,23,00,28,13.80
2016,08,23,00,29,13.80
2016,08,23,00,30,13.80
2016,08,23,00,31,13.80
2016,08,23,00,32,13.80
2016,08,23,00,33,13.80
2016,08,23,00,34,13.80
2016,08,23,00,35,13.80
2016,08,23,00,36,13.80
2016,08,23,00,37,13.80
2016,08,23,00,38,13.80
2016,08,23,00,39,13.80
2016,08,23,00,40,13.80
2016,08,23,00,41,13.80
2016,08,23,00,42,13.80
2016,08,23,00,43,13.80
2016,08,23,00,44,13.80
2016,08,23,00,45,13.80
2016,08,23,00,46,13.80
2016,08,23,00,47,13.80
2016,08,23,00,48,13.80
2016,08,23,00,49,13.80
2016,08,23,00,50,13.80
2016,08,23,00,51,13.80
2016,08,23,00,52,13.80
2016,08,23,00,53,13.80
2016,08,23,00,54,13.80
2016,08,23,00,55,13.80
2016,08,23,00,56,13.70
2016,08,23,00,57,13.70
2016,08,23,00,58,13.70
2016,08,23,00,59,13.70
2016,08,23,01,00,13.70
2016,08,23,01,01,13.70
2016,08,23,01,02,13.70
2016,08,23,01,03,13.60
2016,08,23,01,04,13.60
2016,08,23,01,05,13.60
2016,08,23,01,06,13.60
2016,08,23,01,07,13.50
2016,08,23,01,08,13.50
2016,08,23,01,09,13.50
2016,08,23,01,10,13.40
2016,08,23,01,11,13.40
2016,08,23,01,12,13.40
2016,08,23,01,13,13.40
2016,08,23,01,14,13.40
2016,08,23,01,15,13.40
2016,08,23,01,16,13.40
2016,08,23,01,17,13.40
2016,08,23,01,18,13.30
2016,08,23,01,19,13.30
2016,08,23,01,20,13.30
2016,08,23,01,21,13.30
2016,08,23,01,22,13.30
2016,08,23,01,23,13.30
2016,08,23,01,24,13.30
2016,08,23,01,25,13.30
2016,08,23,01,26,13.30
2016,08,23,01,27,13.30
2016,08,23,01,28,13.30
2016,08,23,01,29,13.30
2016,08,23,01,30,13.30
2016,08,23,01,31,13.30
2016,08,23,01,32,13.30
2016,08,23,01,33,13.30
2016,08,23,01,34,13.30
2016,08,23,01,35,13.30
2016,08,23,01,36,13.30
2016,08,23,01,37,13.30
2016,08,23,01,38,13.30
2016,08,23,01,39,13.30
2016,08,23,01,40,13.30
2016,08,23,01,41,13.30
2016,08,23,01,42,13.20
2016,08,23,01,43,13.20
2016,08,23,01,44,13.20
2016,08,23,01,45,13.20
2016,08,23,01,46,13.20
2016,08,23,01,47,13.20
2016,08,23,01,48,13.20
2016,08,23,01,49,13.20
2016,08,23,01,50,13.20
2016,08,23,01,51,13.20
2016,08,23,01,52,13.20
2016,08,23,01,53,13.20
2016,08,23,01,54,13.20
2016,08,23,01,55,13.20
2016,08,23,01,56,13.20
2016,08,23,01,57,13.20
2016,08,23,01,58,13.20
2016,08,23,01,59,13.20
2016,08,23,02,00,13.20
2016,08,23,02,01,13.20
2016,08,23,02,02,13.20
2016,08,23,02,03,13.20
2016,08,23,02,04,13.20
2016,08,23,02,05,13.10
2016,08,23,02,06,13.10
2016,08,23,02,07,13.10
2016,08,23,02,08,13.10
2016,08,23,02,09,13.10
2016,08,23,02,10,13.10
2016,08,23,02,11,13.10
2016,08,23,02,12,13.10
2016,08,23,02,13,13.10
2016,08,23,02,14,13.10
2016,08,23,02,15,13.00
2016,08,23,02,16,13.00
2016,08,23,02,17,13.00
2016,08,23,02,18,13.00
2016,08,23,02,19,12.90
2016,08,23,02,20,12.90
2016,08,23,02,21,12.90
2016,08,23,02,22,12.90
2016,08,23,02,23,12.90
2016,08,23,02,24,12.90
2016,08,23,02,25,12.90
2016,08,23,02,26,12.90
2016,08,23,02,27,12.80
2016,08,23,02,28,12.80
2016,08,23,02,29,12.80
2016,08,23,02,30,12.80
2016,08,23,02,31,12.80
2016,08,23,02,32,12.80
2016,08,23,02,33,12.80
2016,08,23,02,34,12.80
2016,08,23,02,35,12.80
2016,08,23,02,36,12.80
2016,08,23,02,37,12.80
2016,08,23,02,38,12.80
2016,08,23,02,39,12.80
2016,08,23,02,40,12.80
2016,08,23,02,41,12.80
2016,08,23,02,42,12.80
2016,08,23,02,43,12.80
2016,08,23,02,44,12.80
2016,08,23,02,45,12.80
2016,08,23,02,46,12.80
2016,08,23,02,47,12.70
2016,08,23,02,48,12.70
2016,08,23,02,49,12.70
2016,08,23,02,50,12.70
2016,08,23,02,51,12.70
2016,08,23,02,52,12.70
2016,08,23,02,53,12.70
2016,08,23,02,54,12.70
2016,08,23,02,55,12.70
2016,08,23,02,56,12.70
2016,08,23,02,57,12.70
2016,08,23,02,58,12.70
2016,08,23,02,59,12.70
2016,08,23,03,00,12.70
2016,08,23,03,01,12.70
2016,08,23,03,02,12.70
2016,08,23,03,03,12.60
2016,08,23,03,04,12.60
2016,08,23,03,05,12.60
2016,08,23,03,06,12.70
2016,08,23,03,07,12.70
2016,08,23,03,08,12.70
2016,08,23,03,09,12.70
2016,08,23,03,10,12.70
2016,08,23,03,11,12.70
2016,08,23,03,12,12.70
2016,08,23,03,13,12.70
2016,08,23,03,14,12.70
2016,08,23,03,15,12.70
2016,08,23,03,16,12.70
2016,08,23,03,17,12.70
2016,08,23,03,18,12.70
2016,08,23,03,19,12.70
2016,08,23,03,20,12.70
2016,08,23,03,21,12.70
2016,08,23,03,22,12.70
2016,08,23,03,23,12.70
2016,08,23,03,24,12.70
2016,08,23,03,25,12.70
2016,08,23,03,26,12.70
2016,08,23,03,27,12.70
2016,08,23,03,28,12.70
2016,08,23,03,29,12.70
2016,08,23,03,30,12.70
2016,08,23,04,03,12.20
2016,08,23,04,04,12.20
2016,08,23,04,05,12.20
2016,08,23,04,06,12.20
2016,08,23,04,07,12.20
2016,08,23,04,08,12.20
2016,08,23,04,09,12.20
2016,08,23,04,10,12.20
2016,08,23,04,11,12.20
2016,08,23,04,12,12.20
2016,08,23,04,13,12.20
2016,08,23,04,14,12.20
2016,08,23,04,15,12.20
2016,08,23,04,16,12.20
2016,08,23,04,17,12.20
2016,08,23,04,18,12.20
2016,08,23,04,19,12.20
2016,08,23,04,20,12.20
2016,08,23,04,21,12.20
2016,08,23,04,22,12.20
2016,08,23,04,23,12.20
2016,08,23,04,24,12.20
2016,08,23,04,25,12.20
2016,08,23,04,26,12.10
2016,08,23,04,27,12.10
2016,08,23,04,28,12.10
2016,08,23,04,29,12.10
2016,08,23,04,30,12.10
2016,08,23,04,31,12.10
2016,08,23,04,32,12.10
2016,08,23,04,33,12.10
2016,08,23,04,34,12.10
2016,08,23,04,35,12.10
2016,08,23,04,36,12.10
2016,08,23,04,37,12.00
2016,08,23,04,38,12.00
2016,08,23,04,39,12.00
2016,08,23,04,40,12.00
2016,08,23,04,41,12.00
2016,08,23,04,42,12.00
2016,08,23,04,43,12.00
2016,08,23,04,44,12.00
2016,08,23,04,45,12.00
2016,08,23,04,46,12.00
2016,08,23,04,47,12.00
2016,08,23,04,48,12.00
2016,08,23,04,49,12.00
2016,08,23,04,50,12.00
2016,08,23,04,51,12.00
2016,08,23,04,52,12.00
2016,08,23,04,53,12.00
2016,08,23,04,54,12.00
2016,08,23,04,55,11.90
2016,08,23,04,56,11.90
2016,08,23,04,57,11.90
2016,08,23,04,58,11.90
2016,08,23,04,59,11.90
2016,08,23,05,00,11.90
2016,08,23,05,01,12.00
2016,08,23,05,02,11.90
2016,08,23,05,03,11.90
2016,08,23,05,04,11.90
2016,08,23,05,05,11.90
2016,08,23,05,06,11.90
2016,08,23,05,07,11.90
2016,08,23,05,08,11.90
2016,08,23,05,09,11.80
2016,08,23,05,10,11.80
2016,08,23,05,11,11.80
2016,08,23,05,12,11.80
2016,08,23,05,13,11.80
2016,08,23,05,14,11.80
2016,08,23,05,15,11.80
2016,08,23,05,16,11.80
2016,08,23,05,17,11.80
2016,08,23,05,18,11.70
2016,08,23,05,19,11.70
2016,08,23,05,20,11.70
2016,08,23,05,21,11.70
2016,08,23,05,22,11.70
2016,08,23,05,23,11.70
2016,08,23,05,24,11.70
2016,08,23,05,25,11.70
2016,08,23,05,26,11.60
2016,08,23,05,27,11.60
2016,08,23,05,28,11.60
2016,08,23,05,29,11.60
2016,08,23,05,30,11.60
2016,08,23,05,31,11.60
2016,08,23,05,32,11.60
2016,08,23,05,33,11.60
2016,08,23,05,34,11.60
2016,08,23,05,35,11.50
2016,08,23,05,36,11.50
2016,08,23,05,37,11.50
2016,08,23,05,38,11.50
2016,08,23,05,39,11.50
2016,08,23,05,40,11.40
2016,08,23,05,41,11.40
2016,08,23,05,42,11.40
2016,08,23,05,43,11.40
2016,08,23,05,44,11.40
2016,08,23,05,45,11.40
2016,08,23,05,46,11.40
2016,08,23,05,47,11.40
2016,08,23,05,48,11.40
2016,08,23,05,49,11.40
2016,08,23,05,50,11.40
2016,08,23,05,51,11.40
2016,08,23,05,52,11.40
2016,08,23,05,53,11.40
2016,08,23,05,54,11.40
2016,08,23,05,55,11.40
2016,08,23,05,56,11.40
2016,08,23,05,57,11.40
2016,08,23,05,58,11.40
2016,08,23,05,59,11.40
2016,08,23,06,00,11.40
2016,08,23,06,01,11.40
2016,08,23,06,02,11.40
2016,08,23,06,03,11.40
2016,08,23,06,04,11.40
2016,08,23,06,05,11.40
2016,08,23,06,06,11.30
2016,08,23,06,07,11.30
2016,08,23,06,08,11.30
2016,08,23,06,09,11.30
2016,08,23,06,10,11.30
2016,08,23,06,11,11.30
2016,08,23,06,12,11.30
2016,08,23,06,13,11.30
2016,08,23,06,14,11.30
2016,08,23,06,15,11.30
2016,08,23,06,16,11.30
2016,08,23,06,17,11.20
2016,08,23,06,18,11.20
2016,08,23,06,19,11.20
2016,08,23,06,20,11.20
2016,08,23,06,21,11.30
2016,08,23,06,22,11.30
2016,08,23,06,23,11.30
2016,08,23,06,24,11.30
2016,08,23,06,25,11.30
2016,08,23,06,26,11.30
2016,08,23,06,27,11.30
2016,08,23,06,28,11.30
2016,08,23,06,29,11.20
2016,08,23,06,30,11.20
2016,08,23,06,31,11.20
2016,08,23,06,32,11.20
2016,08,23,06,33,11.20
2016,08,23,06,34,11.20
2016,08,23,06,35,11.20
2016,08,23,06,36,11.20
2016,08,23,06,37,11.20
2016,08,23,06,38,11.20
2016,08,23,06,39,11.20
2016,08,23,06,40,11.20
2016,08,23,06,41,11.20
2016,08,23,06,42,11.20
2016,08,23,06,43,11.20
2016,08,23,06,44,11.20
2016,08,23,06,45,11.20
2016,08,23,06,46,11.20
2016,08,23,06,47,11.20
2016,08,23,06,48,11.20
2016,08,23,06,49,11.20
2016,08,23,06,50,11.20
2016,08,23,06,51,11.20
2016,08,23,06,52,11.20
2016,08,23,06,53,11.20
2016,08,23,06,54,11.20
2016,08,23,06,55,11.10
2016,08,23,06,56,11.10
2016,08,23,06,57,11.20
2016,08,23,06,58,11.20
2016,08,23,06,59,11.20
2016,08,23,07,00,11.20
2016,08,23,07,01,11.20
2016,08,23,07,02,11.20
2016,08,23,07,03,11.20
2016,08,23,07,04,11.20
2016,08,23,07,05,11.20
2016,08,23,07,06,11.20
2016,08,23,07,07,11.10
2016,08,23,07,08,11.10
2016,08,23,07,09,11.10
2016,08,23,07,10,11.10
2016,08,23,07,11,11.10
2016,08,23,07,12,11.10
2016,08,23,07,13,11.10
2016,08,23,07,14,11.10
2016,08,23,07,15,11.10
2016,08,23,07,16,11.10
2016,08,23,07,17,11.10
2016,08,23,07,18,11.10
2016,08,23,07,19,11.20
2016,08,23,07,20,11.20
2016,08,23,07,21,11.20
2016,08,23,07,22,11.20
2016,08,23,07,23,11.20
2016,08,23,07,24,11.20
2016,08,23,07,25,11.30
2016,08,23,07,26,11.30
2016,08,23,07,27,11.30
2016,08,23,07,28,11.30
2016,08,23,07,29,11.30
2016,08,23,07,30,11.40
2016,08,23,07,31,11.40
2016,08,23,07,32,11.40
2016,08,23,07,33,11.40
2016,08,23,07,34,11.40
2016,08,23,07,35,11.50
2016,08,23,07,36,11.50
2016,08,23,07,37,11.50
2016,08,23,07,38,11.50
2016,08,23,07,39,11.60
2016,08,23,07,40,11.60
2016,08,23,07,41,11.60
2016,08,23,07,42,11.60
2016,08,23,07,43,11.70
2016,08,23,07,44,11.70
2016,08,23,07,45,11.80
2016,08,23,07,46,11.80
2016,08,23,07,47,11.90
2016,08,23,07,48,11.90
2016,08,23,07,49,12.00
2016,08,23,07,50,12.00
2016,08,23,07,51,12.10
2016,08,23,07,52,12.10
2016,08,23,07,53,12.20
2016,08,23,07,54,12.30
2016,08,23,07,55,12.40
2016,08,23,07,56,12.40
2016,08,23,07,57,12.50
2016,08,23,07,58,12.60
2016,08,23,07,59,12.60
2016,08,23,08,00,12.70
2016,08,23,08,01,12.80
2016,08,23,08,02,12.80
2016,08,23,08,03,12.90
2016,08,23,08,04,12.90
2016,08,23,08,05,13.00
2016,08,23,08,06,13.10
2016,08,23,08,07,13.10
2016,08,23,08,08,13.10
2016,08,23,08,09,13.20
2016,08,23,08,10,13.20
2016,08,23,08,11,13.30
2016,08,23,08,12,13.30
2016,08,23,08,13,13.30
2016,08,23,08,14,13.40
2016,08,23,08,15,13.40
2016,08,23,08,16,13.40
2016,08,23,08,17,13.40
2016,08,23,08,18,13.50
2016,08,23,08,19,13.50
2016,08,23,08,20,13.50
2016,08,23,08,21,13.60
2016,08,23,08,22,13.60
2016,08,23,08,23,13.60
2016,08,23,08,24,13.60
2016,08,23,08,25,13.60
2016,08,23,08,26,13.70
2016,08,23,08,27,13.70
2016,08,23,08,28,13.70
2016,08,23,08,29,13.80
2016,08,23,08,30,13.80
2016,08,23,08,31,13.80
2016,08,23,08,32,13.90
2016,08,23,08,33,13.90
2016,08,23,08,34,14.00
2016,08,23,08,35,14.00
2016,08,23,08,36,14.10
2016,08,23,08,37,14.20
2016,08,23,08,38,14.20
2016,08,23,08,39,14.30
2016,08,23,08,40,14.30
2016,08,23,08,41,14.30
2016,08,23,08,42,14.30
2016,08,23,08,43,14.30
2016,08,23,08,44,14.40
2016,08,23,08,45,14.50
2016,08,23,08,46,14.50
2016,08,23,08,47,14.60
2016,08,23,08,48,14.60
2016,08,23,08,49,14.70
2016,08,23,08,50,14.70
2016,08,23,08,51,14.70
2016,08,23,08,52,14.70
2016,08,23,08,53,14.70
2016,08,23,08,54,14.80
2016,08,23,08,55,14.90
2016,08,23,08,56,14.90
2016,08,23,08,57,14.90
2016,08,23,08,58,15.00
2016,08,23,08,59,15.00
2016,08,23,09,00,15.00
2016,08,23,09,01,15.00
2016,08,23,09,02,15.10
2016,08,23,09,03,15.10
2016,08,23,09,04,15.10
2016,08,23,09,05,15.20
2016,08,23,09,06,15.20
2016,08,23,09,07,15.30
2016,08,23,09,08,15.40
2016,08,23,09,09,15.50
2016,08,23,09,10,15.60
2016,08,23,09,11,15.70
2016,08,23,09,12,15.70
2016,08,23,09,13,15.70
2016,08,23,09,14,15.80
2016,08,23,09,15,15.90
2016,08,23,09,16,15.90
2016,08,23,09,17,15.90
2016,08,23,09,18,15.90
2016,08,23,09,19,16.00
2016,08,23,09,20,16.00
2016,08,23,09,21,16.00
2016,08,23,09,22,16.00
2016,08,23,09,23,16.00
2016,08,23,09,24,16.00
2016,08,23,09,25,16.00
2016,08,23,09,26,15.90
2016,08,23,09,27,15.90
2016,08,23,09,28,16.00
2016,08,23,09,29,16.00
2016,08,23,09,30,16.00
2016,08,23,09,31,16.10
2016,08,23,09,32,16.20
2016,08,23,09,33,16.30
2016,08,23,09,34,16.40
2016,08,23,09,35,16.50
2016,08,23,09,36,16.60
2016,08,23,09,37,16.70
2016,08,23,09,38,16.80
2016,08,23,09,39,16.90
2016,08,23,09,40,16.90
2016,08,23,09,41,17.00
2016,08,23,09,42,17.00
2016,08,23,09,43,17.00
2016,08,23,09,44,16.90
2016,08,23,09,45,16.90
2016,08,23,09,46,16.90
2016,08,23,09,47,16.90
2016,08,23,09,48,16.90
2016,08,23,09,49,16.90
2016,08,23,09,50,16.90
2016,08,23,09,51,17.00
2016,08,23,09,52,17.00
2016,08,23,09,53,17.00
2016,08,23,09,54,17.00
2016,08,23,09,55,17.00
2016,08,23,09,56,17.00
2016,08,23,09,57,17.10
2016,08,23,09,58,17.10
2016,08,23,09,59,17.20
2016,08,23,10,00,17.20
2016,08,23,10,01,17.30
2016,08,23,10,02,17.40
2016,08,23,10,03,17.50
2016,08,23,10,04,17.60
2016,08,23,10,05,17.70
2016,08,23,10,06,17.80
2016,08,23,10,07,17.90
2016,08,23,10,08,17.90
2016,08,23,10,09,17.90
2016,08,23,10,10,17.90
2016,08,23,10,11,18.00
2016,08,23,10,12,18.10
2016,08,23,10,13,18.10
2016,08,23,10,14,18.10
2016,08,23,10,15,18.20
2016,08,23,10,16,18.10
2016,08,23,10,17,18.10
2016,08,23,10,18,18.10
2016,08,23,10,19,18.10
2016,08,23,10,20,18.20
2016,08,23,10,21,18.20
2016,08,23,10,22,18.30
2016,08,23,10,23,18.40
2016,08,23,10,24,18.50
2016,08,23,10,25,18.60
2016,08,23,10,26,18.70
2016,08,23,10,27,18.80
2016,08,23,10,28,18.80
2016,08,23,10,29,18.90
2016,08,23,10,30,18.90
2016,08,23,10,31,19.00
2016,08,23,10,32,19.00
2016,08,23,10,33,19.10
2016,08,23,10,34,19.20
2016,08,23,10,35,19.30
2016,08,23,10,36,19.40
2016,08,23,10,37,19.50
2016,08,23,10,38,19.50
2016,08,23,10,39,19.60
2016,08,23,10,40,19.70
2016,08,23,10,41,19.70
2016,08,23,10,42,19.80
2016,08,23,10,43,19.80
2016,08,23,10,44,19.80
2016,08,23,10,45,19.90
2016,08,23,10,46,19.90
2016,08,23,10,47,19.90
2016,08,23,10,48,19.90
2016,08,23,10,49,20.00
2016,08,23,10,50,20.00
2016,08,23,10,51,20.10
2016,08,23,10,52,20.10
2016,08,23,10,53,20.10
2016,08,23,10,54,20.10
2016,08,23,10,55,20.10
2016,08,23,10,56,20.10
2016,08,23,10,57,20.20
2016,08,23,10,58,20.20
2016,08,23,10,59,20.30
2016,08,23,11,00,20.30
2016,08,23,11,01,20.40
2016,08,23,11,02,20.40
2016,08,23,11,03,20.50
2016,08,23,11,04,20.50
2016,08,23,11,05,20.50
2016,08,23,11,06,20.50
2016,08,23,11,07,20.50
2016,08,23,11,08,20.50
2016,08,23,11,09,20.50
2016,08,23,11,10,20.50
2016,08,23,11,11,20.50
2016,08,23,11,12,20.60
2016,08,23,11,13,20.80
2016,08,23,11,14,20.80
2016,08,23,11,15,20.80
2016,08,23,11,16,20.90
2016,08,23,11,17,21.00
2016,08,23,11,18,21.10
2016,08,23,11,19,21.10
2016,08,23,11,20,21.20
2016,08,23,11,21,21.20
2016,08,23,11,22,21.20
2016,08,23,11,23,21.20
2016,08,23,11,24,21.30
2016,08,23,11,25,21.30
2016,08,23,11,26,21.30
2016,08,23,11,27,21.40
2016,08,23,11,28,21.50
2016,08,23,11,29,21.60
2016,08,23,11,30,21.80
2016,08,23,11,31,21.90
2016,08,23,11,32,22.00
2016,08,23,11,33,22.10
2016,08,23,11,34,22.10
2016,08,23,11,35,22.20
2016,08,23,11,36,22.30
2016,08,23,11,37,22.40
2016,08,23,11,38,22.50
2016,08,23,11,39,22.60
2016,08,23,11,40,22.60
2016,08,23,11,41,22.70
2016,08,23,11,42,22.70
2016,08,23,11,43,22.60
2016,08,23,11,44,22.60
2016,08,23,11,45,22.50
2016,08,23,11,46,22.50
2016,08,23,11,47,22.50
2016,08,23,11,48,22.60
2016,08,23,11,49,22.60
2016,08,23,11,50,22.60
2016,08,23,11,51,22.70
2016,08,23,11,52,22.70
2016,08,23,11,53,22.70
2016,08,23,11,54,22.80
2016,08,23,11,55,22.80
2016,08,23,11,56,22.80
2016,08,23,11,57,22.80
2016,08,23,11,58,22.80
2016,08,23,11,59,22.80
2016,08,23,12,00,22.90
2016,08,23,12,01,23.00
2016,08,23,12,02,23.00
2016,08,23,12,03,23.10
2016,08,23,12,04,23.20
2016,08,23,12,05,23.30
2016,08,23,12,06,23.30
2016,08,23,12,07,23.40
2016,08,23,12,08,23.40
2016,08,23,12,09,23.40
2016,08,23,12,10,23.50
2016,08,23,12,11,23.50
2016,08,23,12,12,23.50
2016,08,23,12,13,23.60
2016,08,23,12,14,23.60
2016,08,23,12,15,23.60
2016,08,23,12,16,23.60
2016,08,23,12,17,23.50
2016,08,23,12,18,23.40
2016,08,23,12,19,23.40
2016,08,23,12,20,23.40
2016,08,23,12,21,23.50
2016,08,23,12,22,23.60
2016,08,23,12,23,23.60
2016,08,23,12,24,23.60
2016,08,23,12,25,23.60
2016,08,23,12,26,23.60
2016,08,23,12,27,23.70
2016,08,23,12,28,23.80
2016,08,23,12,29,23.90
2016,08,23,12,30,23.90
2016,08,23,12,31,24.00
2016,08,23,12,32,24.10
2016,08,23,12,33,24.20
2016,08,23,12,34,24.20
2016,08,23,12,35,24.10
2016,08,23,12,36,24.00
2016,08,23,12,37,24.00
2016,08,23,12,38,24.00
2016,08,23,12,39,24.00
2016,08,23,12,40,24.10
2016,08,23,12,41,24.10
2016,08,23,12,42,24.10
2016,08,23,12,43,24.20
2016,08,23,12,44,24.20
2016,08,23,12,45,24.20
2016,08,23,12,46,24.30
2016,08,23,12,47,24.40
2016,08,23,12,48,24.40
2016,08,23,12,49,24.40
2016,08,23,12,50,24.50
2016,08,23,12,51,24.50
2016,08,23,12,52,24.50
2016,08,23,12,53,24.40
2016,08,23,12,54,24.40
2016,08,23,12,55,24.30
2016,08,23,12,56,24.20
2016,08,23,12,57,24.20
2016,08,23,12,58,24.10
2016,08,23,12,59,24.10
2016,08,23,13,00,24.00
2016,08,23,13,01,24.00
2016,08,23,13,02,24.00
2016,08,23,13,03,24.00
2016,08,23,13,04,24.10
2016,08,23,13,05,24.10
2016,08,23,13,06,24.20
2016,08,23,13,07,24.30
2016,08,23,13,08,24.30
2016,08,23,13,09,24.40
2016,08,23,13,10,24.50
2016,08,23,13,11,24.70
2016,08,23,13,12,24.70
2016,08,23,13,13,24.80
2016,08,23,13,14,24.90
2016,08,23,13,15,24.90
2016,08,23,13,16,25.00
2016,08,23,13,17,25.00
2016,08,23,13,18,25.10
2016,08,23,13,19,25.10
2016,08,23,13,20,25.10
2016,08,23,13,21,25.20
2016,08,23,13,22,25.20
2016,08,23,13,23,25.30
2016,08,23,13,24,25.40
2016,08,23,13,25,25.40
2016,08,23,13,26,25.50
2016,08,23,13,27,25.50
2016,08,23,13,28,25.70
2016,08,23,13,29,25.70
2016,08,23,13,30,25.80
2016,08,23,13,31,25.90
2016,08,23,13,32,25.90
2016,08,23,13,33,25.90
2016,08,23,13,34,25.90
2016,08,23,13,35,25.90
2016,08,23,13,36,25.90
2016,08,23,13,37,25.90
2016,08,23,13,38,25.90
2016,08,23,13,39,26.00
2016,08,23,13,40,26.00
2016,08,23,13,41,26.00
2016,08,23,13,42,26.00
2016,08,23,13,43,26.10
2016,08,23,13,44,26.20
2016,08,23,13,45,26.30
2016,08,23,13,46,26.30
2016,08,23,13,47,26.40
2016,08,23,13,48,26.40
2016,08,23,13,49,26.40
2016,08,23,13,50,26.40
2016,08,23,13,51,26.40
2016,08,23,13,52,26.50
2016,08,23,13,53,26.60
2016,08,23,13,54,26.60
2016,08,23,13,55,26.70
2016,08,23,13,56,26.90
2016,08,23,13,57,27.00
2016,08,23,13,58,27.10
2016,08,23,13,59,27.10
2016,08,23,14,00,27.10
2016,08,23,14,01,27.00
2016,08,23,14,02,26.90
2016,08,23,14,03,26.80
2016,08,23,14,04,26.80
2016,08,23,14,05,26.90
2016,08,23,14,06,26.90
2016,08,23,14,07,26.90
2016,08,23,14,08,26.90
2016,08,23,14,09,26.80
2016,08,23,14,10,26.80
2016,08,23,14,11,26.80
2016,08,23,14,12,26.90
2016,08,23,14,13,26.90
2016,08,23,14,14,27.00
2016,08,23,14,15,27.10
2016,08,23,14,16,27.10
2016,08,23,14,17,27.20
2016,08,23,14,18,27.20
2016,08,23,14,19,27.20
2016,08,23,14,20,27.30
2016,08,23,14,21,27.40
2016,08,23,14,22,27.50
2016,08,23,14,23,27.50
2016,08,23,14,24,27.50
2016,08,23,14,25,27.50
2016,08,23,14,26,27.50
2016,08,23,14,27,27.60
2016,08,23,14,28,27.60
2016,08,23,14,29,27.70
2016,08,23,14,30,27.70
2016,08,23,14,31,27.70
2016,08,23,14,32,27.60
2016,08,23,14,33,27.50
2016,08,23,14,34,27.40
2016,08,23,14,35,27.40
2016,08,23,14,36,27.30
2016,08,23,14,37,27.30
2016,08,23,14,38,27.30
2016,08,23,14,39,27.30
2016,08,23,14,40,27.40
2016,08,23,14,41,27.40
2016,08,23,14,42,27.40
2016,08,23,14,43,27.40
2016,08,23,14,44,27.50
2016,08,23,14,45,27.50
2016,08,23,14,46,27.50
2016,08,23,14,47,27.50
2016,08,23,14,48,27.50
2016,08,23,14,49,27.50
2016,08,23,14,50,27.60
2016,08,23,14,51,27.70
2016,08,23,14,52,27.80
2016,08,23,14,53,27.90
2016,08,23,14,54,28.00
2016,08,23,14,55,28.10
2016,08,23,14,56,28.10
2016,08,23,14,57,28.00
2016,08,23,14,58,28.00
2016,08,23,14,59,27.90
2016,08,23,15,00,27.90
2016,08,23,15,01,28.00
2016,08,23,15,02,28.00
2016,08,23,15,03,28.00
2016,08,23,15,04,28.10
2016,08,23,15,05,28.10
2016,08,23,15,06,28.20
2016,08,23,15,07,28.30
2016,08,23,15,08,28.30
2016,08,23,15,09,28.40
2016,08,23,15,10,28.50
2016,08,23,15,11,28.50
2016,08,23,15,12,28.40
2016,08,23,15,13,28.40
2016,08,23,15,14,28.40
2016,08,23,15,15,28.50
2016,08,23,15,16,28.60
2016,08,23,15,17,28.60
2016,08,23,15,18,28.60
2016,08,23,15,19,28.70
2016,08,23,15,20,28.60
2016,08,23,15,21,28.50
2016,08,23,15,22,28.50
2016,08,23,15,23,28.50
2016,08,23,15,24,28.60
2016,08,23,15,25,28.50
2016,08,23,15,26,28.40
2016,08,23,15,27,28.30
2016,08,23,15,28,28.40
2016,08,23,15,29,28.40
2016,08,23,15,30,28.40
2016,08,23,15,31,28.40
2016,08,23,15,32,28.40
2016,08,23,15,33,28.40
2016,08,23,15,34,28.40
2016,08,23,15,35,28.40
2016,08,23,15,36,28.40
2016,08,23,15,37,28.50
2016,08,23,15,38,28.50
2016,08,23,15,39,28.40
2016,08,23,15,40,28.50
2016,08,23,15,41,28.40
2016,08,23,15,42,28.40
2016,08,23,15,43,28.50
2016,08,23,15,44,28.50
2016,08,23,15,45,28.50
2016,08,23,15,46,28.60
2016,08,23,15,47,28.60
2016,08,23,15,48,28.60
2016,08,23,15,49,28.60
2016,08,23,15,50,28.60
2016,08,23,15,51,28.60
2016,08,23,15,52,28.60
2016,08,23,15,53,28.60
2016,08,23,15,54,28.60
2016,08,23,15,55,28.60
2016,08,23,15,56,28.60
2016,08,23,15,57,28.60
2016,08,23,15,58,28.60
2016,08,23,15,59,28.80
2016,08,23,16,00,28.80
2016,08,23,16,01,28.90
2016,08,23,16,02,28.90
2016,08,23,16,03,28.80
2016,08,23,16,04,28.70
2016,08,23,16,05,28.70
2016,08,23,16,06,28.80
2016,08,23,16,07,28.80
2016,08,23,16,08,28.90
2016,08,23,16,09,28.90
2016,08,23,16,10,28.90
2016,08,23,16,11,28.80
2016,08,23,16,12,28.90
2016,08,23,16,13,28.90
2016,08,23,16,14,28.90
2016,08,23,16,15,28.90
2016,08,23,16,16,29.00
2016,08,23,16,17,28.90
2016,08,23,16,18,28.90
2016,08,23,16,19,28.90
2016,08,23,16,20,28.90
2016,08,23,16,21,28.80
2016,08,23,16,22,28.80
2016,08,23,16,23,28.90
2016,08,23,16,24,28.90
2016,08,23,16,25,28.80
2016,08,23,16,26,28.80
2016,08,23,16,27,28.90
2016,08,23,16,28,29.00
2016,08,23,16,29,29.00
2016,08,23,16,30,29.10
2016,08,23,16,31,29.10
2016,08,23,16,32,29.10
2016,08,23,16,33,29.10
2016,08,23,16,34,29.10
2016,08,23,16,35,29.00
2016,08,23,16,36,28.90
2016,08,23,16,37,28.80
2016,08,23,16,38,28.80
2016,08,23,16,39,28.80
2016,08,23,16,40,28.90
2016,08,23,16,41,28.90
2016,08,23,16,42,29.00
2016,08,23,16,43,29.00
2016,08,23,16,44,28.90
2016,08,23,16,45,28.90
2016,08,23,16,46,28.90
2016,08,23,16,47,28.90
2016,08,23,16,48,28.90
2016,08,23,16,49,28.90
2016,08,23,16,50,28.90
2016,08,23,16,51,28.90
2016,08,23,16,52,28.90
2016,08,23,16,53,28.90
2016,08,23,16,54,28.90
2016,08,23,16,55,28.90
2016,08,23,16,56,29.00
2016,08,23,16,57,29.00
2016,08,23,16,58,28.90
2016,08,23,16,59,28.90
2016,08,23,17,00,28.90
2016,08,23,17,01,28.90
2016,08,23,17,02,28.90
2016,08,23,17,03,28.90
2016,08,23,17,04,28.90
2016,08,23,17,05,28.80
2016,08,23,17,06,28.80
2016,08,23,17,07,28.90
2016,08,23,17,08,28.80
2016,08,23,17,09,28.80
2016,08,23,17,10,28.80
2016,08,23,17,11,28.90
2016,08,23,17,12,28.90
2016,08,23,17,13,28.90
2016,08,23,17,14,28.90
2016,08,23,17,15,28.80
2016,08,23,17,16,28.80
2016,08,23,17,17,28.80
2016,08,23,17,18,28.80
2016,08,23,17,19,28.80
2016,08,23,17,20,28.80
2016,08,23,17,21,28.80
2016,08,23,17,22,28.80
2016,08,23,17,23,28.90
2016,08,23,17,24,29.00
2016,08,23,17,25,29.00
2016,08,23,17,26,29.00
2016,08,23,17,27,29.00
2016,08,23,17,28,29.00
2016,08,23,17,29,29.10
2016,08,23,17,30,29.10
2016,08,23,17,31,29.00
2016,08,23,17,32,29.00
2016,08,23,17,33,28.90
2016,08,23,17,34,28.80
2016,08,23,17,35,28.80
2016,08,23,17,36,28.70
2016,08,23,17,37,28.70
2016,08,23,17,38,28.70
2016,08,23,17,39,28.70
2016,08,23,17,40,28.80
2016,08,23,17,41,28.80
2016,08,23,17,42,28.80
2016,08,23,17,43,28.90
2016,08,23,17,44,29.00
2016,08,23,17,45,29.00
2016,08,23,17,46,29.00
2016,08,23,17,47,29.00
2016,08,23,17,48,28.90
2016,08,23,17,49,28.90
2016,08,23,17,50,28.90
2016,08,23,17,51,28.80